Погода в Деражном

Украина / Ровненская область     50°51′39″N   26°02′52″E
темп.,
°C
ветер,
м/с
пор.,
м/с
влажн.,
%
обл.,
%
осадки,
мм/ч
давл.,
гПа
погр.,
м
9 мая, вс
вс900:00+3з35915 0.0 102172
03:00+2з37945 0.0 1022126
06:00+1з35940 0.0 102396
09:00+7з34745 0.0 1025434
12:00+11з23526 0.0 10241448
15:00+14зюз34446 0.0 10241985
18:00+14юз24477 0.0 10231815
21:00+9юв33645 0.0 102428
10 мая, пн
пн1000:00+7юв411685 0.0 1025168
03:00+6ююв47775 0.0 1025108
06:00+5ююв48765 0.0 1025135
09:00+12ююв6106388 0.0 1025377
12:00+16ююв7853100 0.0 10241076
15:00+18ююв785149 0.0 10231303
18:00+18юв585976 0.0 10221117
21:00+12юв4107970 0.0 1023178
11 мая, вт
вт1100:00+9юв412843 0.0 1023209
03:00+8юв411860 0.0 1023205
06:00+7юв412850 0.0 1023219
09:00+12юв610690 0.0 1023459
12:00+16вюв78500 0.0 10221020
15:00+18вюв67450 0.0 10201228
18:00+17вюв58580 0.0 10191083
21:00+12в412810 0.0 1018246
12 мая, ср
ср1200:00+10вюв311905 0.0 1018235
03:00+9в48966 0.0 1017166
06:00+9в5119714 0.0 1016338
09:00+12вюв69752 0.0 1015722
12:00+14в795898 0.0 10141293
15:00+13вюв786444 0.0 10131165
18:00+12вюв576791 0.0 1012887
21:00+9в488112 0.1 1011165
13 мая, чт
чт1300:00+6в49955 0.0 1011206
03:00+5в489817 0.0 1009172
06:00+4в499819 0.0 1008192
09:00+10вюв6107950 0.0 1007655
12:00+11юв61086100 0.0 1007984
15:00+10юв61194100 1.9 1006799
18:00+10ююв61193100 0.4 1007494
21:00+10юв4994100 0.4 1007331